{"data":{"norad_id":57123,"epoch":"2026-09-20T16:20:56.059296Z","epoch_age_seconds":105299,"freshness":"FRESH","line1":"1 57123U 23090Y   26263.68120439  .00000738  00000+0  36340-4 0  9991","line2":"2 57123  43.0013 260.3570 0001234 271.4176  88.6534 15.27576948179962","mean_motion":15.27576948,"eccentricity":0.0001234,"inclination_deg":43.0013,"raan_deg":260.357,"arg_perigee_deg":271.4176,"mean_anomaly_deg":88.6534,"bstar":3.634e-5,"rev_number":17996,"period_min":94.266937052522,"perigee_km":482.21156334884,"apogee_km":483.9049063328,"semimajor_km":6861.1952348408,"source":"CELESTRAK","updated_at":"2026-09-21T09:00:33.562596Z"}}